YAOGAN-41

Last updated on Mon Sep 07 2026 00:03:02 GMT+0000 (Coordinated Universal Time)

1 58582U 23197A 26249.61617509 -.00000377 00000+0 00000+0 0 9994 2 58582 2.9883 314.5179 0014072 211.7093 164.4225 1.00270853 10143
UTC large
Height (km)
Speed (km/s)
/
Latitude / Longitude
Inclination (degrees)
Orbital Period (minutes)
Azimuth
Elevation
Range (km)
Doppler Factor

Next 0 passes for location: London (51.5072 / 0.1276)

No passes found over London.
YAOGAN-41